Beatrice, NE

10:18 PM CDT on June 26, 2017 (GMT -0500)
Beatrice Municipal

Weather History for KBIE - January, 2000

Change the Weather History Date:

Sunday, January 2, 2000

  Actual Average Record
Temperature  
Mean Temperature 32 °F -  
Max Temperature 37 °F 31 °F 62 °F (1997)
Min Temperature 26 °F 14 °F -7 °F (1979)
Degree Days  
Heating Degree Days 34    
Moisture  
Dew Point 26 °F    
Average Humidity 75    
Maximum Humidity 93    
Minimum Humidity 60    
Precipitation  
Precipitation 0.00 in - - ()
Sea Level Pressure  
Sea Level Pressure 29.72 in    
Wind  
Wind Speed 10 mph (NW)    
Max Wind Speed 18 mph    
Max Gust Speed 26 mph    
Visibility 10 miles    
Events      
Averages and records for this station are not official NWS values.
T = Trace of Precipitation, MM = Missing Value Source: NWS Daily Summary

Daily Weather History Graph

Daily Weather History Graph

Search for Another Location

Airport or City:

Trip Planner

Search our weather history database for the weather conditions in past years. The results will help you decide how hot, cold, wet, or windy it might be!

Date:

Astronomy

Jan. 02, 2000 Rise Set
Actual Time 7:49 AM CST 5:12 PM CST
Civil Twilight 7:19 AM CST 5:42 PM CST
Nautical Twilight 6:45 AM CST 6:16 PM CST
Astronomical Twilight 6:12 AM CST 6:49 PM CST
Moon 4:04 AM CST (1/2) 2:39 PM CST (1/2)
Length of Visible Light 10h 23m
Length of Day
9h 22m
Waning Crescent, 14% of the Moon is Illuminated
Jan 2
Waning Crescent
Jan 6
New
Jan 14
First Quarter
Jan 20
Full
Jan 28
Last Quarter

Hourly Weather History & Observations

Time (CST) Temp. Windchill Dew Point Humidity Pressure Visibility Wind Dir Wind Speed Gust Speed Precip Events Conditions
12:11 AM 33.8 °F 25.8 °F 28.4 °F 81% 29.52 in 10.0 mi NNW 10.4 mph - N/A   Clear
12:32 AM 33.8 °F 27.7 °F 28.4 °F 81% 29.50 in 10.0 mi North 6.9 mph - N/A   Clear
12:49 AM 33.8 °F 27.0 °F 28.4 °F 81% 29.49 in 10.0 mi NNE 8.1 mph - N/A   Clear
1:31 AM 32.0 °F 26.4 °F 28.4 °F 87% 29.47 in 10.0 mi NE 5.8 mph - N/A   Scattered Clouds
1:49 AM 32.0 °F 26.4 °F 28.4 °F 87% 29.46 in 10.0 mi North 5.8 mph - N/A   Scattered Clouds
2:11 AM 32.0 °F 26.4 °F 28.4 °F 87% 29.47 in 10.0 mi NNW 5.8 mph - N/A   Scattered Clouds
2:32 AM 28.4 °F 24.6 °F 24.8 °F 86% 29.47 in 10.0 mi NNW 3.5 mph - N/A   Clear
2:53 AM 28.4 °F 23.3 °F 24.8 °F 86% 29.47 in 10.0 mi NNW 4.6 mph - N/A   Clear
3:11 AM 26.6 °F 16.8 °F 21.2 °F 80% 29.45 in 10.0 mi NNW 10.4 mph - N/A   Clear
3:31 AM 28.4 °F 17.0 °F 26.6 °F 93% 29.51 in 10.0 mi WNW 15.0 mph - N/A   Clear
3:52 AM 30.2 °F 20.2 °F 26.6 °F 86% 29.53 in 10.0 mi WNW 12.7 mph - N/A   Mostly Cloudy
4:09 AM 32.0 °F 23.0 °F 28.4 °F 87% 29.54 in 10.0 mi WNW 11.5 mph - N/A   Overcast
4:30 AM 32.0 °F 20.5 °F 28.4 °F 87% 29.57 in 10.0 mi WNW 18.4 mph 25.3 mph N/A   Overcast
4:52 AM 33.8 °F 22.8 °F 28.4 °F 81% 29.58 in 10.0 mi WNW 18.4 mph 26.5 mph N/A   Overcast
5:09 AM 33.8 °F 23.2 °F 28.4 °F 81% 29.57 in 10.0 mi NW 17.3 mph 25.3 mph N/A   Overcast
5:33 AM 32.0 °F 21.6 °F 26.6 °F 80% 29.59 in 10.0 mi NW 15.0 mph - N/A   Mostly Cloudy
5:50 AM 32.0 °F 21.6 °F 26.6 °F 80% 29.60 in 10.0 mi WNW 15.0 mph - N/A   Mostly Cloudy
6:12 AM 30.2 °F 18.9 °F 24.8 °F 80% 29.61 in 10.0 mi NW 16.1 mph 21.9 mph N/A   Mostly Cloudy
6:29 AM 30.2 °F 19.3 °F 24.8 °F 80% 29.63 in 10.0 mi NW 15.0 mph 20.7 mph N/A   Scattered Clouds
7:09 AM 30.2 °F 20.2 °F 24.8 °F 80% 29.67 in 10.0 mi WNW 12.7 mph - N/A   Clear
7:30 AM 30.2 °F 20.2 °F 24.8 °F 80% 29.69 in 10.0 mi WNW 12.7 mph 19.6 mph N/A   Scattered Clouds
7:50 AM 30.2 °F 19.3 °F 26.6 °F 86% 29.70 in 10.0 mi WNW 15.0 mph 18.4 mph N/A   Mostly Cloudy
8:30 AM 32.0 °F 21.6 °F 24.8 °F 75% 29.73 in 10.0 mi WNW 15.0 mph - N/A   Overcast
8:50 AM 32.0 °F 20.8 °F 26.6 °F 80% 29.73 in 10.0 mi WNW 17.3 mph - N/A   Overcast
9:09 AM 32.0 °F 22.1 °F 24.8 °F 75% 29.76 in 10.0 mi WNW 13.8 mph 19.6 mph N/A   Overcast
9:31 AM 33.8 °F 22.8 °F 24.8 °F 70% 29.77 in 10.0 mi NW 18.4 mph - N/A   Overcast
9:49 AM 33.8 °F 25.8 °F 24.8 °F 70% 29.78 in 10.0 mi WNW 10.4 mph - N/A   Overcast
10:10 AM 33.8 °F 24.8 °F 24.8 °F 70% 29.78 in 10.0 mi NW 12.7 mph - N/A   Overcast
10:29 AM 33.8 °F 24.3 °F 24.8 °F 70% 29.80 in 10.0 mi WNW 13.8 mph - N/A   Overcast
10:50 AM 33.8 °F 24.3 °F 24.8 °F 70% 29.82 in 10.0 mi WNW 13.8 mph - N/A   Overcast
11:12 AM 33.8 °F 24.3 °F 24.8 °F 70% 29.83 in 10.0 mi NW 13.8 mph - N/A   Overcast
11:30 AM 33.8 °F 26.4 °F 24.8 °F 70% 29.84 in 10.0 mi WNW 9.2 mph - N/A   Overcast
11:52 AM 33.8 °F 24.8 °F 24.8 °F 70% 29.83 in 10.0 mi NW 12.7 mph - N/A   Overcast
12:29 PM 33.8 °F 25.8 °F 24.8 °F 70% 29.82 in 10.0 mi NW 10.4 mph - N/A   Overcast
1:50 PM 35.6 °F 29.2 °F 24.8 °F 65% 29.81 in 10.0 mi NW 8.1 mph - N/A   Overcast
2:11 PM 35.6 °F 32.8 °F 24.8 °F 65% 29.82 in 10.0 mi NW 3.5 mph - N/A   Overcast
2:30 PM 37.4 °F 32.1 °F 24.8 °F 60% 29.82 in 10.0 mi NW 6.9 mph - N/A   Overcast
2:49 PM 37.4 °F 30.8 °F 24.8 °F 60% 29.82 in 10.0 mi WNW 9.2 mph - N/A   Overcast
3:10 PM 35.6 °F 29.2 °F 24.8 °F 65% 29.84 in 10.0 mi NW 8.1 mph - N/A   Overcast
3:29 PM 35.6 °F 29.9 °F 24.8 °F 65% 29.84 in 10.0 mi NW 6.9 mph - N/A   Overcast
4:09 PM 35.6 °F 31.7 °F 24.8 °F 65% 29.85 in 10.0 mi WNW 4.6 mph - N/A   Overcast
4:29 PM 35.6 °F 30.7 °F 24.8 °F 65% 29.86 in 10.0 mi West 5.8 mph - N/A   Overcast
4:50 PM 35.6 °F 30.7 °F 24.8 °F 65% 29.86 in 10.0 mi NW 5.8 mph - N/A   Overcast
5:09 PM 35.6 °F 30.7 °F 24.8 °F 65% 29.86 in 10.0 mi North 5.8 mph - N/A   Overcast
5:35 PM 35.6 °F 29.9 °F 24.8 °F 65% 29.86 in 10.0 mi North 6.9 mph - N/A   Overcast
5:49 PM 33.8 °F 29.6 °F 24.8 °F 70% 29.86 in 10.0 mi NNE 4.6 mph - N/A   Overcast
6:10 PM 33.8 °F 29.6 °F 24.8 °F 70% 29.86 in 10.0 mi NNE 4.6 mph - N/A   Overcast
6:29 PM 33.8 °F 29.6 °F 24.8 °F 70% 29.86 in 10.0 mi NNE 4.6 mph - N/A   Overcast
7:30 PM 33.8 °F 30.8 °F 26.6 °F 75% 29.88 in 10.0 mi NNE 3.5 mph - N/A   Overcast
7:49 PM 33.8 °F 29.6 °F 26.6 °F 75% 29.89 in 10.0 mi NNE 4.6 mph - N/A   Overcast
8:10 PM 33.8 °F 27.7 °F 26.6 °F 75% 29.89 in 10.0 mi NNE 6.9 mph - N/A   Overcast
8:29 PM 33.8 °F 29.6 °F 26.6 °F 75% 29.90 in 10.0 mi NE 4.6 mph - N/A   Overcast
8:50 PM 33.8 °F 28.6 °F 24.8 °F 70% 29.90 in 10.0 mi NNE 5.8 mph - N/A   Overcast
9:14 PM 33.8 °F 28.6 °F 24.8 °F 70% 29.90 in 10.0 mi NNE 5.8 mph - N/A   Overcast
9:29 PM 32.0 °F 25.6 °F 24.8 °F 75% 29.90 in 10.0 mi NNE 6.9 mph - N/A   Overcast
9:50 PM 32.0 °F 24.8 °F 26.6 °F 80% 29.90 in 10.0 mi NNE 8.1 mph - N/A   Overcast
10:09 PM 32.0 °F 24.8 °F 24.8 °F 75% 29.90 in 10.0 mi NNE 8.1 mph - N/A   Overcast
10:30 PM 32.0 °F 26.4 °F 26.6 °F 80% 29.91 in 10.0 mi NE 5.8 mph - N/A   Overcast
10:49 PM 32.0 °F 26.4 °F 24.8 °F 75% 29.91 in 10.0 mi NNE 5.8 mph - N/A   Overcast
11:10 PM 32.0 °F 27.5 °F 26.6 °F 80% 29.92 in 10.0 mi ENE 4.6 mph - N/A   Overcast
11:32 PM 32.0 °F 27.5 °F 24.8 °F 75% 29.92 in 10.0 mi ENE 4.6 mph - N/A   Overcast
11:50 PM 32.0 °F 26.4 °F 26.6 °F 80% 29.91 in 10.0 mi ENE 5.8 mph - N/A   Overcast